Regional Weather Roundup
Issued by NWS

Home | Current Version | Previous Version | Graphics & Text | Print | Product List | Glossary On
Versions: 1 2 3 4 5 6 7 8 9 10 11 12 13 14 15 16 17 18 19 20 21 22 23 24 25 26 27 28 29 30 31 32 33 34 35 36 37 38 39 40 41 42 43 44 45 46 47 48 49 50
000
ASUS43 KDTX 201710
RWRMI
MICHIGAN HOURLY REGIONAL WEATHER ROUNDUP
NATIONAL WEATHER SERVICE DETROIT/PONTIAC MI
1200 PM EST SAT DEC 20 2014

NOTE: "FAIR" INDICATES FEW OR NO CLOUDS BELOW 12,000 FEET WITH NO
SIGNIFICANT WEATHER AND/OR OBSTRUCTION TO VISIBILITY.

MIZ047>049-052>055-059>063-066>070-074>076-081>083-201800-
SOUTHEAST LOWER MICHIGAN

CITY           SKY/WX    TMP DP  RH WIND       PRES   REMARKS
ADRIAN         CLOUDY    30  21  69 S8        30.29F
ALMA           MOSUNNY   28  25  89 CALM      30.29F
ANN ARBOR      CLOUDY    30  22  72 E3        30.28F
BAD AXE        MOSUNNY   28  24  83 W3        30.29F
DETROIT CITY   CLOUDY    31  20  63 CALM      30.31F
DETROIT        CLOUDY    30  21  69 CALM      30.30F
FLINT          PTSUNNY   30  23  75 CALM      30.29F
GROSSE ILE     CLOUDY    30  23  74 NE3       30.29F
HILLSDALE      CLOUDY    29  22  74 CALM      30.25F
HOWELL         CLOUDY    29  20  71 W5        30.27F

CITY           SKY/WX    TMP DP  RH WIND       PRES   REMARKS
JACKSON        CLOUDY    28  21  75 CALM      30.26F
LAMBERTVILLE   CLOUDY    32  21  64 CALM      30.29F
LANSING        MOSUNNY   29  22  75 CALM      30.28F
LAPEER         NOT AVBL
MASON          CLOUDY    28  20  72 CALM      30.27F
MONROE         CLOUDY    28  25  86 CALM      30.28F
MT. CLEMENS    CLOUDY    30  22  73 CALM      30.28F
PONTIAC        CLOUDY    27  21  78 S5        30.27F
PORT HOPE        N/A     31  21  66 NW6       30.27F
PORT HURON     CLOUDY    28  25  86 CALM      30.30F
TRI CITIES     MOSUNNY   29  23  78 CALM      30.30F
YPSILANTI      CLOUDY    33  22  63 CALM      30.30F
$$
MIZ043>046-050>051-056>058-064>065-071>073-077>080-201800-
SOUTHWEST LOWER MICHIGAN

CITY           SKY/WX    TMP DP  RH WIND       PRES   REMARKS
BATTLE CREEK   MOSUNNY   31  22  69 S5        30.27F
BENTON HARBOR  CLOUDY    30  26  85 E5        30.27F
BIG RAPIDS     PTSUNNY   26  24  92 CALM      30.26F
COLDWATER      MOSUNNY   31  21  67 CALM      30.26F
HOLLAND        CLOUDY    28  23  81 SE7       30.28F
GRAND RAPIDS   PTSUNNY   30  23  75 SE5       30.27F
KALAMAZOO      CLOUDY    30  24  78 S6        30.27F
MARSHALL       PTSUNNY   29  21  72 SE3       30.26F
MUSKEGON       CLOUDY    28  23  81 SE6       30.27F
$$
MIZ016>042-201800-
NORTHERN LOWER MICHIGAN

CITY           SKY/WX    TMP DP  RH WIND       PRES   REMARKS
ALPENA         MOSUNNY   26  21  81 CALM      30.29F
BEAVER ISLAND  CLOUDY    29  26  88 CALM      30.28S
BELLAIRE       CLOUDY    28  22  79 CALM      30.28F
CADILLAC       PTSUNNY   24  20  83 CALM      30.23F
CHARLEVOIX     CLOUDY    26  22  82 E7        30.30F
FRANKFORT      CLOUDY    28  23  79 SE5       30.27F
GAYLORD        CLOUDY    22  19  89 CALM      30.23F
GRAYLING       CLOUDY    23  19  83 CALM      30.26F
HARBOR SPRINGS CLOUDY    24  20  85 NE3       30.28F
HOUGHTON LAKE  PTSUNNY   23  21  92 CALM      30.26F
MANISTEE       CLOUDY    25  19  80 SE5       30.28F
OSCODA         MOSUNNY   26  23  89 CALM      30.28F
PELLSTON       CLOUDY    22  20  92 SE3       30.29F
TRAVERSE CITY  CLOUDY    29  21  72 SE5       30.27F
$$
MIZ007>008-015-201800-
EASTERN UPPER MICHIGAN

CITY           SKY/WX    TMP DP  RH WIND       PRES   REMARKS
KINROSS        CLOUDY    23  21  93 CALM      30.28F
MACKINAC ISLAN CLOUDY    27  22  79 CALM      30.27F
NEWBERRY       MOSUNNY   25  21  83 CALM      30.25F
S. S. MARIE    CLOUDY    20  18  92 E3        30.28F
$$
MIZ004>006-011>014-085-201800-
CENTRAL UPPER MICHIGAN

CITY           SKY/WX    TMP DP  RH WIND       PRES   REMARKS
MANISTIQUE     PTSUNNY   30  23  75 MISG      30.26F
ESCANABA       MOSUNNY   21  19  93 CALM      30.26F
MENOMINEE      CLOUDY    25  21  86 CALM      30.26F
SAWYER-GWINN   CLOUDY    19  18  93 CALM      30.21F
$$
MIZ001>003-009>011-084-201800-
WESTERN UPPER MICHIGAN

CITY           SKY/WX    TMP DP  RH WIND       PRES   REMARKS
IRON MOUNTAIN  CLOUDY    23  20  88 CALM      30.21F
HOUGHTON       CLOUDY    23  20  88 CALM      30.17F
COPPER HARBOR    N/A     27  20  75 MISG      30.20F
IRONWOOD       CLOUDY    27  25  93 S7        30.14F
$$

ABBREVIATIONS USED IN REMARKS
   TC - TEMPERATURE IN CELSIUS
  WCI - WIND CHILL INDEX
   HX - HEAT INDEX
  VSB - VISIBILITY



USA.gov is the U.S. government's official web portal to all federal, state and local government web resources and services.